Location: Newark
(7.1028°S, 35.3258°W)
Time: 14:43:43
(UTC+00:00)

Vanguard 3 - Pass Details

Date: 02 March 2020
Orbit: 508 x 3262 km, 33.3° (Epoch: 31 March)

Event Time Altitude Azimuth Distance (km) Brightness Sun altitude
Rises 23:02:47 0° 244° (WSW) 7,161 12.9 -35.7°
Reaches altitude 10° 23:09:13 10° 232° (SW) 6,208 12.3 -37.3°
Maximum altitude 23:24:20 26° 182° (S) 4,600 11.0 -40.9°
Enters shadow 23:32:20 19° 146° (SE) 4,628 10.8 -42.8°
